Погода в Бордо

Франция     44˚50′40″N   0˚34′41″E
темп.,
°C
ветер,
м/с
пор.,
м/с
влажн.,
%
обл.,
%
осадки,
мм/ч
давл.,
гПа
погр.,
м
5 декабря, сб
сб501:00+4˚ююз348857 0.6 994110
04:00+4˚ююз489025 0.4 994210
07:00+5˚ю598862 1.5 995304
10:00+6˚ююз598761 0.6 996327
13:00+10˚юз6107480 0.8 9961133
16:00+8˚ююз5989100 5.6 995452
19:00+7˚зюз359091 6.7 997146
22:00+7˚зюз388970 1.1 999225
6 декабря, вс
вс601:00+7˚зюз4108485 1.9 998373
04:00+7˚з41183100 0.6 998455
07:00+7˚з41281100 2.1 999641
10:00+8˚сз3107783 0.6 1002929
13:00+10˚сз596043 0.8 10031557
16:00+9˚зсз486417 0.2 10031127
19:00+7˚з387910 0.3 1004330
22:00+6˚з22854 0.1 100453
7 декабря, пн
пн701:00+5˚юз22862 0.1 100426
04:00+5˚ююз128389 0.0 100333
07:00+5˚ююз238795 0.0 100367
10:00+7˚ююв3588100 0.0 1001249
13:00+7˚ю3690100 2.2 1000469
16:00+6˚юв3694100 5.0 998307
19:00+8˚зюз51384100 5.5 998797
22:00+7˚зюз41082100 0.7 998417
8 декабря, вт
вт801:00+8˚зюз3984100 1.7 998392
04:00+6˚ююз389280 0.8 997287
07:00+6˚св359384 1.6 999196
10:00+5˚ссз6108393 0.0 1005479
13:00+7˚ссз586877 0.0 1009771
16:00+8˚сз476814 0.0 1011941
19:00+7˚сз257727 0.0 1013385
22:00+6˚з3688100 1.1 1013353
9 декабря, ср
ср901:00+5˚зюз249392 2.4 1014144
04:00+4˚ссз248822 0.1 1015115
07:00+3˚з118611 0.1 101622
10:00+5˚ююз248414 0.0 1017139
13:00+9˚зсз367442 0.0 1017613
16:00+9˚з1273100 0.0 1017157
19:00+7˚ююз2384100 0.0 101685
22:00+8˚ю3688100 0.6 1014203